FW6014 Weather Reports


Display with metric or nautical units.
time (UTC)temp
F
wind
direction
speed
MPH
gust
MPH
rain 1hr
in
rain 24hr
in
rain mn
in
humidity
%
barometer
mb
20260906021102 54 270 0.0 0.0 0.00 0.00 0.00 95 1015.4
20260906020602 54 270 0.0 0.0 0.00 0.00 0.00 95 1015.4
20260906020059 54 270 0.0 0.0 0.00 0.00 0.00 95 1015.1
20260906015601 54 270 0.0 0.0 0.00 0.00 0.00 95 1015.3
20260906015102 55 270 0.0 0.0 0.00 0.00 0.00 95 1015.4
20260906014643 54 270 0.0 0.0 0.00 0.00 0.00 95 1015.1
20260906014603 55 270 0.0 0.0 0.00 0.00 0.00 95 1015.4
20260906014101 55 270 0.0 0.0 0.00 0.00 0.00 95 1015.4
20260906013101 54 270 0.0 0.0 0.00 0.00 0.00 95 1015.4
20260906013033 54 270 0.0 0.0 0.00 0.00 0.00 95 1015.1
20260906012602 55 270 0.0 0.0 0.00 0.00 0.00 94 1015.3
20260906011631 54 270 0.0 0.0 0.00 0.00 0.00 94 1015.1
20260906011601 55 270 0.0 0.0 0.00 0.00 0.00 94 1015.4
20260906011102 55 270 0.0 0.0 0.00 0.00 0.00 94 1015.3
20260906010022 55 270 0.0 0.0 0.00 0.00 0.00 94 1015.0
20260906004610 55 270 0.0 0.0 0.00 0.00 0.00 93 1014.9
20260906004602 55 270 0.0 0.0 0.00 0.00 0.00 93 1015.2
20260906004102 56 270 0.0 0.0 0.00 0.00 0.00 93 1015.1
20260906003605 56 270 0.0 0.0 0.00 0.00 0.00 93 1015.1
20260906003102 56 270 0.0 0.0 0.00 0.00 0.00 92 1015.1
20260906002604 56 270 0.0 0.0 0.00 0.00 0.00 92 1015.0
20260906002102 57 270 0.0 0.0 0.00 0.00 0.00 92 1015.0
20260906001604 56 270 0.0 0.0 0.00 0.00 0.00 91 1014.6
20260906001102 57 270 0.0 0.0 0.00 0.00 0.00 91 1015.0
20260906000602 57 270 0.0 0.0 0.00 0.00 0.00 91 1015.0
20260906000136 57 270 0.0 0.0 0.00 0.00 0.00 91 1014.8
20260905235601 58 270 0.0 0.0 0.00 0.00 0.00 91 1015.1
20260905235102 58 270 0.0 0.0 0.00 0.00 0.00 91 1015.1
20260905234602 58 270 0.0 0.0 0.00 0.00 0.00 90 1015.1
20260905234530 58 270 0.0 0.0 0.00 0.00 0.00 90 1014.7
20260905234102 58 270 0.0 0.0 0.00 0.00 0.00 90 1015.1
20260905233603 59 270 0.0 0.0 0.00 0.00 0.00 89 1015.0
20260905233130 58 270 0.0 0.0 0.00 0.00 0.00 89 1014.6
20260905233102 59 270 0.0 0.0 0.00 0.00 0.00 89 1014.9
20260905232102 59 270 0.0 0.0 0.00 0.00 0.00 89 1014.9
20260905231601 60 270 0.0 0.0 0.00 0.00 0.00 90 1014.9
20260905231532 59 270 0.0 0.0 0.00 0.00 0.00 90 1014.5
20260905231102 60 270 0.0 0.0 0.00 0.00 0.00 88 1014.9
20260905230601 60 270 0.0 0.0 0.00 0.00 0.00 88 1014.8
20260905230133 60 270 0.0 0.0 0.00 0.00 0.00 88 1014.4
20260905225601 60 270 0.0 0.0 0.00 0.00 0.00 88 1014.6
20260905225102 60 270 0.0 0.0 0.00 0.00 0.00 88 1014.7
20260905224601 60 270 0.0 0.0 0.00 0.00 0.00 86 1014.6
20260905224529 60 270 0.0 0.0 0.00 0.00 0.00 86 1014.3
20260905224101 61 270 0.0 0.0 0.00 0.00 0.00 86 1014.5
20260905223602 61 270 0.0 0.0 0.00 0.00 0.00 86 1014.6
20260905223124 61 270 0.0 0.0 0.00 0.00 0.00 87 1014.1
20260905223101 61 270 0.0 0.0 0.00 0.00 0.00 87 1014.4
20260905222603 62 270 0.0 0.0 0.00 0.00 0.00 86 1014.5
20260905222102 62 270 0.0 0.0 0.00 0.00 0.00 85 1014.4
20260905221602 62 270 0.0 0.0 0.00 0.00 0.00 85 1014.4
20260905221532 62 270 0.0 0.0 0.00 0.00 0.00 85 1014.0
20260905221103 62 270 0.0 0.0 0.00 0.00 0.00 85 1014.4
20260905220600 63 270 0.0 0.0 0.00 0.00 0.00 84 1014.3
20260905215557 63 270 0.0 0.0 0.00 0.00 0.00 81 1014.3
20260905215050 64 270 0.0 1.0 0.00 0.00 0.00 81 1014.3
20260905214545 64 270 0.0 1.0 0.00 0.00 0.00 82 1014.1
20260905214505 63 270 0.0 1.0 0.00 0.00 0.00 82 1013.7
20260905214044 64 270 0.0 0.0 0.00 0.00 0.00 81 1014.1
20260905213544 64 270 0.0 0.0 0.00 0.00 0.00 81 1014.1
20260905213105 64 270 0.0 0.0 0.00 0.00 0.00 79 1013.6
20260905213044 65 270 0.0 0.0 0.00 0.00 0.00 80 1014.0
20260905212545 65 270 0.0 0.0 0.00 0.00 0.00 79 1013.8
20260905212043 65 270 0.0 1.0 0.00 0.00 0.00 78 1013.8
20260905211649 64 270 0.0 1.0 0.00 0.00 0.00 77 1013.4
20260905211544 65 270 0.0 1.0 0.00 0.00 0.00 78 1013.7
20260905211044 65 270 0.0 1.0 0.00 0.00 0.00 78 1013.8
20260905210057 65 270 0.0 0.0 0.00 0.00 0.00 76 1013.2
20260905210045 65 270 0.0 0.0 0.00 0.00 0.00 76 1013.7
20260905205543 65 270 0.0 2.0 0.00 0.00 0.00 76 1013.7
20260905205043 65 270 0.0 2.0 0.00 0.00 0.00 75 1013.5
20260905204633 65 270 0.0 2.0 0.00 0.00 0.00 75 1013.1
20260905204541 65 270 0.0 2.0 0.00 0.00 0.00 77 1013.5
20260905204041 65 270 0.0 1.0 0.00 0.00 0.00 78 1013.5
20260905203539 66 270 0.0 0.0 0.00 0.00 0.00 78 1013.4
20260905203039 66 270 0.0 2.0 0.00 0.00 0.00 77 1013.3
20260905203022 65 270 0.0 2.0 0.00 0.00 0.00 77 1013.0
20260905202536 66 270 0.0 2.0 0.00 0.00 0.00 74 1013.2
20260905201615 67 270 0.0 2.0 0.00 0.00 0.00 72 1012.9
20260905201534 68 270 0.0 4.0 0.00 0.00 0.00 71 1013.2
20260905201032 69 270 1.0 5.0 0.00 0.00 0.00 72 1013.2
20260905200031 69 270 0.0 0.0 0.00 0.00 0.00 75 1013.1
20260905200015 69 270 0.0 0.0 0.00 0.00 0.00 76 1012.7
20260905195532 69 270 0.0 0.0 0.00 0.00 0.00 76 1013.0
20260905195031 69 270 0.0 0.0 0.00 0.00 0.00 75 1013.0
20260905194030 70 270 0.0 0.0 0.00 0.00 0.00 73 1013.0
20260905193530 71 270 0.0 0.0 0.00 0.00 0.00 74 1013.0
20260905193031 71 270 0.0 0.0 0.00 0.00 0.00 76 1013.0
20260905193010 70 270 0.0 0.0 0.00 0.00 0.00 75 1012.6
20260905192530 71 270 0.0 0.0 0.00 0.00 0.00 73 1012.9
20260905192029 70 270 0.0 0.0 0.00 0.00 0.00 75 1013.1
20260905191605 69 270 0.0 0.0 0.00 0.00 0.00 75 1012.7
20260905191529 69 270 0.0 0.0 0.00 0.00 0.00 75 1013.2
20260905191030 69 270 0.0 0.0 0.00 0.00 0.00 73 1013.1
20260905190030 69 270 0.0 0.0 0.00 0.00 0.00 73 1013.1
20260905190003 68 270 0.0 0.0 0.00 0.00 0.00 73 1012.8
20260905185529 69 270 0.0 1.0 0.00 0.00 0.00 73 1013.1
20260905185030 69 270 0.0 1.0 0.00 0.00 0.00 75 1013.1
20260905184611 68 270 0.0 1.0 0.00 0.00 0.00 74 1012.7
20260905184530 68 270 0.0 1.0 0.00 0.00 0.00 74 1013.1
20260905184029 68 270 0.0 2.0 0.00 0.00 0.00 73 1013.2
20260905183530 69 270 0.0 2.0 0.00 0.00 0.00 73 1013.3
20260905183029 69 270 0.0 2.0 0.00 0.00 0.00 71 1013.3
20260905183003 69 270 0.0 2.0 0.00 0.00 0.00 71 1012.9
20260905182530 69 270 0.0 2.0 0.00 0.00 0.00 74 1013.2
20260905182031 68 270 0.0 2.0 0.00 0.00 0.00 77 1013.3
20260905181604 67 270 0.0 2.0 0.00 0.00 0.00 77 1012.9
20260905181529 67 270 0.0 2.0 0.00 0.00 0.00 77 1013.3
20260905181030 66 270 0.0 2.0 0.00 0.00 0.00 77 1013.4
20260905180529 66 270 1.0 2.0 0.00 0.00 0.00 76 1013.4
20260905180159 66 270 0.0 2.0 0.00 0.00 0.00 78 1013.1
20260905180029 66 270 1.0 3.0 0.00 0.00 0.00 78 1013.4
20260905175529 66 270 0.0 3.0 0.00 0.00 0.00 80 1013.4
20260905175029 66 270 0.0 1.0 0.00 0.00 0.00 79 1013.5
20260905174544 65 270 0.0 1.0 0.00 0.00 0.00 79 1013.2
20260905174530 66 270 0.0 1.0 0.00 0.00 0.00 79 1013.5
20260905174030 65 270 1.0 2.0 0.00 0.00 0.00 80 1013.5
20260905173529 65 270 0.0 2.0 0.00 0.00 0.00 80 1013.7
20260905173139 64 270 0.0 2.0 0.00 0.00 0.00 82 1013.3
20260905173028 64 270 0.0 1.0 0.00 0.00 0.00 85 1013.7
20260905172529 64 269 0.0 1.0 0.00 0.00 0.00 84 1013.7
20260905172029 63 270 0.0 1.0 0.00 0.00 0.00 85 1013.7
20260905171554 63 270 0.0 4.0 0.00 0.00 0.00 82 1013.3
20260905171530 63 270 1.0 4.0 0.00 0.00 0.00 82 1013.7
20260905171028 63 270 1.0 4.0 0.00 0.00 0.00 81 1013.7
20260905170531 64 270 0.0 2.0 0.00 0.00 0.00 80 1013.8
20260905170141 64 270 0.0 2.0 0.00 0.00 0.00 80 1013.3
20260905170029 65 270 1.0 2.0 0.00 0.00 0.00 80 1013.7
20260905165529 65 270 1.0 3.0 0.00 0.00 0.00 78 1013.5
20260905165029 66 270 1.0 3.0 0.00 0.00 0.00 78 1013.5
20260905164533 66 270 0.0 2.0 0.00 0.00 0.00 80 1013.1
20260905164526 66 270 1.0 2.0 0.00 0.00 0.00 80 1013.5
20260905164023 66 270 1.0 3.0 0.00 0.00 0.00 78 1013.5
20260905163522 67 270 1.0 3.0 0.00 0.00 0.00 79 1013.5
20260905163123 66 270 1.0 3.0 0.00 0.00 0.00 79 1013.0
20260905163021 67 270 1.0 3.0 0.00 0.00 0.00 78 1013.4
20260905162521 67 270 1.0 4.0 0.00 0.00 0.00 81 1013.4
20260905162020 66 270 1.0 4.0 0.00 0.00 0.00 79 1013.4
20260905161014 67 270 1.0 3.0 0.00 0.00 0.00 78 1013.3
20260905160513 68 270 1.0 4.0 0.00 0.00 0.00 76 1013.2
20260905155510 66 270 1.0 7.0 0.00 0.00 0.00 77 1013.2
20260905155011 65 270 1.0 5.0 0.00 0.00 0.00 80 1013.1
20260905154532 64 270 1.0 5.0 0.00 0.00 0.00 81 1012.7
20260905154508 64 270 2.0 5.0 0.00 0.00 0.00 81 1013.1
20260905154005 64 270 2.0 5.0 0.00 0.00 0.00 80 1013.1
20260905153501 64 270 2.0 7.0 0.00 0.00 0.00 83 1013.1
20260905153103 63 270 1.0 7.0 0.00 0.00 0.00 82 1012.8
20260905153002 64 270 1.0 7.0 0.00 0.00 0.00 83 1013.1
20260905152502 64 269 1.0 4.0 0.00 0.00 0.00 86 1013.0
20260905152002 64 270 0.0 1.0 0.00 0.00 0.00 85 1013.0
20260905151659 64 270 0.0 1.0 0.00 0.00 0.00 85 1012.7
20260905151502 64 270 0.0 1.0 0.00 0.00 0.00 84 1013.0
20260905151000 65 270 0.0 1.0 0.00 0.00 0.00 86 1012.9
20260905150503 65 270 0.0 1.0 0.00 0.00 0.00 85 1012.9
20260905145502 66 270 0.0 2.0 0.00 0.00 0.00 80 1012.9
20260905145001 66 270 0.0 3.0 0.00 0.00 0.00 82 1012.8
20260905144644 66 270 0.0 3.0 0.00 0.00 0.00 80 1012.4
20260905144502 66 270 1.0 4.0 0.00 0.00 0.00 77 1012.8
20260905144000 67 270 1.0 4.0 0.00 0.00 0.00 80 1012.8
20260905143501 67 270 1.0 6.0 0.00 0.00 0.00 79 1012.7
20260905143040 66 270 1.0 6.0 0.00 0.00 0.00 80 1012.3
20260905143002 66 270 1.0 6.0 0.00 0.00 0.00 78 1012.7
20260905142501 66 270 0.0 0.0 0.00 0.00 0.00 81 1012.7
20260905142003 65 270 0.0 0.0 0.00 0.00 0.00 84 1012.8
20260905141641 64 270 0.0 0.0 0.00 0.00 0.00 86 1012.4
20260905141501 64 270 0.0 0.0 0.00 0.00 0.00 88 1012.8
20260905141000 63 270 0.0 0.0 0.00 0.00 0.00 87 1012.8
20260905140457 63 270 0.0 0.0 0.00 0.00 0.00 88 1012.8
20260905140037 62 270 0.0 0.0 0.00 0.00 0.00 88 1012.4
20260905135957 62 270 0.0 0.0 0.00 0.00 0.00 88 1012.8
20260905135458 62 270 0.0 0.0 0.00 0.00 0.00 87 1012.7
20260905134956 62 270 0.0 0.0 0.00 0.00 0.00 88 1012.6
20260905133952 62 270 0.0 0.0 0.00 0.00 0.00 88 1012.5
20260905133446 62 270 0.0 0.0 0.00 0.00 0.00 88 1012.4
20260905132442 62 270 0.0 0.0 0.00 0.00 0.00 87 1012.3
20260905131943 62 270 0.0 0.0 0.00 0.00 0.00 88 1012.3
20260905130939 62 270 0.0 0.0 0.00 0.00 0.00 88 1012.2
20260905130440 62 270 0.0 0.0 0.00 0.00 0.00 88 1012.1
20260905130029 61 269 0.0 0.0 0.00 0.00 0.00 88 1011.7
20260905125939 62 270 0.0 0.0 0.00 0.00 0.00 88 1012.1
20260905125440 62 269 0.0 0.0 0.00 0.00 0.00 88 1012.1
20260905124937 62 269 0.0 0.0 0.00 0.00 0.00 88 1012.1
20260905123937 62 269 0.0 0.0 0.00 0.00 0.00 88 1012.0
20260905123437 62 270 0.0 0.0 0.00 0.00 0.00 89 1011.9
20260905123017 61 270 0.0 0.0 0.00 0.00 0.00 90 1011.5
20260905122938 61 269 0.0 0.0 0.00 0.00 0.00 90 1011.9
20260905121938 61 270 0.0 0.0 0.00 0.00 0.00 90 1011.8
20260905121615 61 270 0.0 0.0 0.00 0.00 0.00 90 1011.4
20260905121431 61 269 0.0 0.0 0.00 0.00 0.00 90 1011.8
20260905120153 60 269 0.0 0.0 0.00 0.00 0.00 89 1011.4
20260905115429 61 269 0.0 0.0 0.00 0.00 0.00 89 1011.7
20260905114931 61 270 0.0 0.0 0.00 0.00 0.00 89 1011.6
20260905113428 61 270 0.0 0.0 0.00 0.00 0.00 90 1011.6
20260905113009 60 269 0.0 0.0 0.00 0.00 0.00 89 1011.2
20260905112930 60 269 0.0 0.0 0.00 0.00 0.00 89 1011.5
20260905111929 60 269 0.0 0.0 0.00 0.00 0.00 90 1011.6
20260905111615 60 270 0.0 0.0 0.00 0.00 0.00 90 1011.1
20260905111430 60 270 0.0 0.0 0.00 0.00 0.00 89 1011.5
20260905110929 60 269 0.0 0.0 0.00 0.00 0.00 90 1011.5
20260905110430 60 270 0.0 0.0 0.00 0.00 0.00 90 1011.5
20260905110003 59 270 0.0 0.0 0.00 0.00 0.00 91 1011.0
20260905105929 59 270 0.0 0.0 0.00 0.00 0.00 91 1011.4
20260905105429 59 270 0.0 0.0 0.00 0.00 0.00 93 1011.3
20260905104931 59 270 0.0 0.0 0.00 0.00 0.00 93 1011.3
20260905104603 58 269 0.0 0.0 0.00 0.00 0.00 93 1010.9
20260905104429 59 270 0.0 0.0 0.00 0.00 0.00 93 1011.3
20260905103929 59 270 0.0 0.0 0.00 0.00 0.00 94 1011.2
20260905103428 59 270 0.0 0.0 0.00 0.00 0.00 93 1011.1
20260905103159 58 270 0.0 0.0 0.00 0.00 0.00 93 1010.7
20260905102930 59 270 0.0 0.0 0.00 0.00 0.00 93 1011.1
20260905102429 59 269 0.0 0.0 0.00 0.00 0.00 94 1011.1
20260905101929 59 270 0.0 0.0 0.00 0.00 0.00 93 1011.0
20260905101544 58 269 0.0 0.0 0.00 0.00 0.00 93 1010.5
20260905101429 59 270 0.0 0.0 0.00 0.00 0.00 93 1010.9
20260905100930 59 269 0.0 0.0 0.00 0.00 0.00 93 1010.9
20260905100144 58 270 0.0 0.0 0.00 0.00 0.00 93 1010.5
20260905095930 59 269 0.0 0.0 0.00 0.00 0.00 93 1010.9
20260905095431 59 270 0.0 0.0 0.00 0.00 0.00 92 1010.8
20260905094923 59 269 0.0 0.0 0.00 0.00 0.00 92 1010.8
20260905094558 59 269 0.0 0.0 0.00 0.00 0.00 91 1010.4
20260905094418 59 269 0.0 0.0 0.00 0.00 0.00 91 1010.7
20260905093915 59 269 0.0 0.0 0.00 0.00 0.00 91 1010.7
20260905093140 59 269 0.0 0.0 0.00 0.00 0.00 91 1010.2
20260905092915 59 269 0.0 0.0 0.00 0.00 0.00 92 1010.5
20260905092416 59 270 0.0 0.0 0.00 0.00 0.00 92 1010.5
20260905091915 59 270 0.0 0.0 0.00 0.00 0.00 92 1010.5
20260905091535 59 269 0.0 0.0 0.00 0.00 0.00 93 1010.0
20260905091416 59 269 0.0 0.0 0.00 0.00 0.00 93 1010.4
20260905090913 59 269 0.0 0.0 0.00 0.00 0.00 93 1010.4
20260905090130 59 270 0.0 0.0 0.00 0.00 0.00 93 1009.9
20260905085913 59 269 0.0 0.0 0.00 0.00 0.00 93 1010.4
20260905085414 59 270 0.0 0.0 0.00 0.00 0.00 93 1010.4
20260905084914 60 269 0.0 0.0 0.00 0.00 0.00 93 1010.4
20260905084535 59 270 0.0 0.0 0.00 0.00 0.00 93 1010.1
20260905084414 60 270 0.0 0.0 0.00 0.00 0.00 93 1010.5
20260905083912 60 269 0.0 0.0 0.00 0.00 0.00 92 1010.4
20260905083414 60 270 0.0 0.0 0.00 0.00 0.00 92 1010.5
20260905083130 59 269 0.0 0.0 0.00 0.00 0.00 92 1010.0
20260905082914 60 270 0.0 0.0 0.00 0.00 0.00 92 1010.5
20260905082413 60 270 0.0 0.0 0.00 0.00 0.00 92 1010.4
20260905081914 60 269 0.0 0.0 0.00 0.00 0.00 93 1010.3
20260905081530 59 269 0.0 0.0 0.00 0.00 0.00 93 1010.0
20260905081413 60 269 0.0 0.0 0.00 0.00 0.00 94 1010.4
20260905080913 60 270 0.0 0.0 0.00 0.00 0.00 93 1010.3
20260905080414 60 270 0.0 0.0 0.00 0.00 0.00 93 1010.4
20260905080131 60 269 0.0 0.0 0.00 0.00 0.00 93 1009.9
20260905075412 60 270 0.0 0.0 0.00 0.00 0.00 94 1010.3
20260905074531 59 270 0.0 0.0 0.00 0.00 0.00 94 1009.9
20260905074413 60 269 0.0 0.0 0.00 0.00 0.00 94 1010.3
20260905073908 60 270 0.0 0.0 0.00 0.00 0.00 94 1010.3
20260905073404 60 270 0.0 0.0 0.00 0.00 0.00 94 1010.3
20260905073126 59 270 0.0 0.0 0.00 0.00 0.00 94 1009.9
20260905072905 60 270 0.0 0.0 0.00 0.00 0.00 94 1010.3
20260905072405 60 269 0.0 0.0 0.00 0.00 0.00 93 1010.3
20260905071905 60 270 0.0 0.0 0.00 0.00 0.00 93 1010.2
20260905071527 60 270 0.0 0.0 0.00 0.00 0.00 93 1009.8
20260905071402 60 270 0.0 0.0 0.00 0.00 0.00 93 1010.2
20260905070902 60 270 0.0 0.0 0.00 0.00 0.00 93 1010.2
20260905070402 60 269 0.0 0.0 0.00 0.00 0.00 93 1010.2
20260905070124 60 270 0.0 0.0 0.00 0.00 0.00 93 1009.9
20260905065404 61 270 0.0 0.0 0.00 0.00 0.00 93 1010.2
20260905064902 61 269 0.0 0.0 0.00 0.00 0.00 92 1010.2
20260905064523 61 270 0.0 0.0 0.00 0.00 0.00 92 1009.8
20260905064402 61 270 0.0 0.0 0.00 0.00 0.00 92 1010.2
20260905063903 61 270 0.0 0.0 0.00 0.00 0.00 92 1010.2
20260905063402 61 270 0.0 0.0 0.00 0.00 0.00 92 1010.3
20260905063127 61 270 0.0 0.0 0.00 0.00 0.00 91 1009.9
20260905062905 61 270 0.0 0.0 0.00 0.00 0.00 91 1010.3
20260905062403 61 270 0.0 0.0 0.00 0.00 0.00 91 1010.2
20260905061902 61 270 0.0 0.0 0.00 0.00 0.00 91 1010.3
20260905061529 61 269 0.0 0.0 0.00 0.00 0.00 91 1009.9
20260905061404 61 269 0.0 0.0 0.00 0.00 0.00 92 1010.2
20260905060902 61 270 0.0 0.0 0.00 0.00 0.00 92 1010.2
20260905060403 62 270 0.0 0.0 0.00 0.00 0.00 92 1010.3
20260905060120 61 270 0.0 0.0 0.00 0.00 0.00 92 1010.0
20260905055902 61 269 0.0 0.0 0.00 0.00 0.00 92 1010.4
20260905055402 61 269 0.0 0.0 0.00 0.00 0.00 92 1010.4
20260905054902 61 269 0.0 0.0 0.00 0.00 0.00 92 1010.4
20260905054520 61 269 0.0 0.0 0.00 0.00 0.00 92 1010.1
20260905054401 61 270 0.0 0.0 0.00 0.00 0.00 92 1010.5
20260905053901 61 269 0.0 0.0 0.00 0.00 0.00 92 1010.5
20260905053405 62 270 0.0 0.0 0.00 0.00 0.00 92 1010.6
20260905053120 61 269 0.0 0.0 0.00 0.00 0.00 91 1010.2
20260905052901 61 269 0.0 0.0 0.00 0.00 0.00 91 1010.6
20260905051902 61 269 0.0 0.0 0.00 0.00 0.00 91 1010.6
20260905051629 61 270 0.0 0.0 0.00 0.00 0.00 92 1010.3
20260905050902 61 270 0.0 0.0 0.00 0.00 0.00 93 1010.7
20260905050403 61 269 0.0 0.0 0.00 0.00 0.00 93 1010.7
20260905050111 60 269 0.0 0.0 0.00 0.00 0.00 93 1010.3
20260905045902 61 270 0.0 0.0 0.00 0.00 0.00 93 1010.7
20260905045401 61 269 0.0 0.0 0.00 0.00 0.00 93 1010.7
20260905044627 60 270 0.0 0.0 0.00 0.00 0.00 92 1010.4
20260905043904 61 269 0.0 0.0 0.00 0.00 0.00 92 1010.7
20260905043359 61 269 0.0 0.0 0.00 0.00 0.00 91 1010.7
20260905043118 61 270 0.0 0.0 0.00 0.00 0.00 91 1010.4
20260905042859 61 269 0.0 1.0 0.00 0.00 0.00 91 1010.8
20260905042357 61 269 0.0 1.0 0.00 0.00 0.00 91 1010.8
20260905041901 62 270 0.0 1.0 0.00 0.00 0.00 92 1010.8
20260905041656 61 270 0.0 1.0 0.00 0.00 0.00 92 1010.4
20260905041357 62 270 0.0 1.0 0.00 0.00 0.00 92 1010.8
20260905040855 62 270 0.0 1.0 0.00 0.00 0.00 92 1010.8
20260905040356 62 269 0.0 1.0 0.00 0.00 0.00 92 1010.8
20260905040111 61 270 0.0 1.0 0.00 0.00 0.00 91 1010.4
20260905035855 62 270 0.0 1.0 0.00 0.00 0.00 91 1010.8
20260905035354 62 270 0.0 1.0 0.00 0.00 0.00 91 1010.7
20260905034852 62 269 0.0 1.0 0.00 0.00 0.00 91 1010.8
20260905034643 61 270 0.0 1.0 0.00 0.00 0.00 91 1010.4
20260905034353 62 270 0.0 1.0 0.00 0.00 0.00 90 1010.8
20260905033850 62 270 1.0 2.0 0.00 0.00 0.00 91 1010.9
20260905033350 62 269 1.0 3.0 0.00 0.00 0.00 90 1010.8
20260905033042 62 269 0.0 3.0 0.00 0.00 0.00 90 1010.6
20260905032850 62 269 0.0 3.0 0.00 0.00 0.00 91 1010.9
20260905032349 62 270 0.0 2.0 0.00 0.00 0.00 90 1010.9
20260905031846 62 270 0.0 0.0 0.00 0.00 0.00 91 1010.9
20260905031640 62 270 0.0 0.0 0.00 0.00 0.00 90 1010.5
20260905031345 62 270 0.0 0.0 0.00 0.00 0.00 90 1010.8
20260905030839 62 270 0.0 0.0 0.00 0.00 0.00 91 1010.8
20260905030041 62 269 0.0 0.0 0.00 0.00 0.00 91 1010.5
20260905025838 62 269 0.0 0.0 0.00 0.00 0.00 91 1010.9
20260905025337 62 270 0.0 0.0 0.00 0.00 0.00 91 1011.0
20260905024632 62 269 0.0 0.0 0.00 0.00 0.00 90 1010.7
20260905024336 62 269 0.0 0.0 0.00 0.00 0.00 90 1011.1
20260905023836 62 269 0.0 0.0 0.00 0.00 0.00 90 1011.0
20260905023336 62 270 0.0 0.0 0.00 0.00 0.00 90 1011.0
20260905023023 61 270 0.0 0.0 0.00 0.00 0.00 91 1010.8
20260905022838 62 269 0.0 0.0 0.00 0.00 0.00 91 1011.1
20260905022334 62 270 0.0 0.0 0.00 0.00 0.00 90 1011.2
20260905021832 62 269 0.0 0.0 0.00 0.00 0.00 91 1011.2
20260905021623 62 270 0.0 0.0 0.00 0.00 0.00 91 1010.8
20260905021332 62 270 0.0 0.0 0.00 0.00 0.00 91 1011.2